Powrót do katalogu

STARLINK-35626

AktywnyŁącznośćVLEO
NORAD 66233·PAYLOAD·🇺🇸 United States

Wystrzelony Oct 28, 2025 z Vandenberg Space Force Base

Loading…

Następne Przeloty (najbliższe 24 godziny)

TLE

ŚwieżeSource: CelesTrak SupGP

Epoka: Sep 14, 2026, 23:12 UTC

1 66233C 25244AD  26257.96715278  .00035457  00000+0  10479-2 0  2577
2 66233  53.1587  69.4523 0001160  78.4803  34.2249 15.34361856    15

Śledź STARLINK-35626 w czasie rzeczywistym z AllMySat

Download on the App Store